Location: Cuzcurrita-R�o Tir�n
(42.5415°N, 2.9642°W)
Time: 21:58:34
(UTC+00:00)

PSLV R/B - Pass Details

Date: 17 January 2021
Orbit: 567 x 598 km, 98.2° (Epoch: 03 March)

Event Time Altitude Azimuth Distance (km) Brightness Sun altitude
Exits shadow 19:01:57 14° 6° (N) 1,716 6.2 -20.9°
Maximum altitude 19:05:34 64° 286° (WNW) 667 4.3 -21.6°
Drops below altitude 10° 19:09:43 10° 205° (SSW) 1,932 7.0 -22.3°
Sets 19:11:53 0° 202° (SSW) 2,829 7.9 -22.7°
